23 maggio 2022

Tempo Codice Tempo metereologico Temp. Vista Nuvole Vento METAR/SPECI
13:00
V
16 °C 24 km 24.000 ft 330°   330° 6 kt METAR CYYZ 231700Z 33006KT 310V060 15SM SCT050 BKN240 16/05 A3032 RMK CU3CS4 SLP272
12:00
V
15 °C 24 km 25.000 ft 010°   010° 7 kt METAR CYYZ 231600Z 01007KT 15SM FEW050 BKN250 15/05 A3033 RMK CU1CI6 SLP277
11:00
V
14 °C 24 km 25.000 ft 310°   310° 9 kt METAR CYYZ 231500Z 31009KT 290V360 15SM FEW040 BKN250 14/04 A3033 RMK SC1CI5 SC TR SLP277
10:00
V
12 °C 24 km - 330°   330° 5 kt METAR CYYZ 231400Z 33005KT 300V020 15SM FEW040 FEW100 SCT250 12/05 A3034 RMK CF1AC1CI4 CF TR AC TR SLP278
09:00
V
11 °C 24 km 25.000 ft 320°   320° 4 kt METAR CYYZ 231300Z 32004KT 270V340 15SM FEW080 BKN250 11/04 A3033 RMK AC1CI6 SLP277
08:00
V
10 °C 24 km - 340°   340° 7 kt METAR CYYZ 231200Z 34007KT 310V010 15SM FEW075 FEW250 10/02 A3032 RMK AC1CI1 AC TR CI TR CONTRAILS SLP273
07:00
V
9 °C 24 km - 350°   350° 7 kt METAR CYYZ 231100Z 35007KT 15SM FEW075 FEW250 09/01 A3031 RMK AC1CI2 AC TR SLP268
06:00
V
7 °C 24 km - 320°   320° 3 kt METAR CYYZ 231000Z 32003KT 15SM FEW075 SCT250 07/02 A3030 RMK AC1CI2 SLP266
05:00
V
8 °C 24 km 7.600 ft 320°   320° 6 kt METAR CYYZ 230900Z 32006KT 15SM BKN076 08/02 A3030 RMK AC6 SLP264
04:00
V
9 °C 24 km 8.000 ft 340°   340° 9 kt METAR CYYZ 230800Z 34009KT 15SM BKN080 09/02 A3029 RMK AC7 SLP262
03:00
V
9 °C 24 km 7.800 ft 310°   310° 8 kt METAR CYYZ 230700Z 31008KT 15SM BKN078 09/03 A3030 RMK AC7 SLP264
02:00
V
9 °C 24 km 7.500 ft 300°   300° 7 kt METAR CYYZ 230600Z 30007KT 15SM BKN075 09/03 A3030 RMK AC7 SLP267
01:00
V
9 °C 24 km - 310°   310° 9 kt METAR CYYZ 230500Z 31009KT 15SM FEW180 09/03 A3028 RMK AC2 SLP259
00:00
V
10 °C 24 km - 310°   310° 7 kt METAR CYYZ 230400Z 31007KT 15SM FEW180 10/04 A3026 RMK AC2 SLP253

22 maggio 2022

Tempo Codice Tempo metereologico Temp. Vista Nuvole Vento METAR/SPECI
23:00
V
11 °C 24 km 24.000 ft 310°   310° 7 kt METAR CYYZ 230300Z 31007KT 15SM FEW180 BKN240 11/05 A3025 RMK AC2CI4 SLP249
22:00
V
12 °C 24 km 24.000 ft 310°   310° 8 kt METAR CYYZ 230200Z 31008KT 15SM FEW180 BKN240 12/06 A3024 RMK AC2CI4 SLP246
21:00
V
13 °C 24 km - 310°   310° 9 kt METAR CYYZ 230100Z 31009KT 15SM FEW025 SCT250 13/06 A3022 RMK SC1CI3 SC TR SLP237
20:00
V
13 °C 24 km 25.000 ft 320°   320° 16 22 kt METAR CYYZ 230000Z 32016G22KT 15SM FEW025 BKN250 13/06 A3021 RMK SC2CI4 SLP233
19:00
V
15 °C 24 km 16.000 ft 300°   300° 15 kt METAR CYYZ 222300Z 30015KT 15SM SCT025 BKN160 BKN200 15/08 A3018 RMK SC4AC2CI1 SLP223
18:00
V
15 °C 24 km 4.100 ft 350°   350° 13 kt METAR CYYZ 222200Z 35013KT 15SM BKN041 BKN240 15/09 A3016 RMK CU5CI2 SLP216
17:30
V
16 °C 24 km 3.500 ft 010°   010° 14 kt METAR CYYZ 222130Z 01014KT 360V090 15SM BKN035 BKN120 16/10 A3014 RMK CU6AC1 WSHFT 2123 SLP208 DENSITY ALT 600FT
17:00
V
16 °C 24 km 3.500 ft 270°   270° 3 kt METAR CYYZ 222100Z 27003KT 170V310 15SM BKN035 BKN120 16/10 A3013 RMK CU6AC1 SLP205 DENSITY ALT 600FT
16:00
V
16 °C 24 km 14.000 ft 280°   280° 6 kt METAR CYYZ 222000Z 28006KT 15SM FEW028 BKN140 BKN260 16/10 A3013 RMK CF2AC4CI1 SLP204 DENSITY ALT 600FT
15:00
V
14 °C 24 km 11.000 ft 310°   310° 9 kt METAR CYYZ 221900Z 31009KT 15SM FEW015 OVC110 14/09 A3011 RMK CF1AC7 SLP198
14:00
V
13 °C 24 km 9.800 ft 320°   320° 10 kt METAR CYYZ 221800Z 32010KT 15SM FEW010 BKN098 13/09 A3010 RMK CF1AC7 CF TR SLP195
13:00
V
12 °C 24 km 6.500 ft 340°   340° 15 kt METAR CYYZ 221700Z 34015KT 15SM FEW011 OVC065 12/10 A3006 RMK SF1SC7 SLP184
12:20
V
11 °C 16 km 5.200 ft 340°   340° 14 21 kt METAR CYYZ 221620Z 34014G21KT 10SM -RA SCT012 OVC052 11/10 A3006 RMK SF2SC6 SLP183
12:00
V
11 °C 24 km 4.100 ft 340°   340° 13 kt METAR CYYZ 221600Z 34013KT 15SM FEW009 OVC041 11/10 A3005 RMK CF2SC6 SLP178
11:00
M
10 °C 16 km 2.200 ft 350°   350° 16 22 kt METAR CYYZ 221500Z 35016G22KT 10SM SCT009 OVC022 10/10 A3002 RMK SF3SC5 SLP168
10:33
M
10 °C 10 km 1.600 ft 340°   340° 16 26 kt METAR CYYZ 221433Z 34016G26KT 6SM -RA BR SCT006 OVC016 10/10 A3000 RMK SF3SC5 SLP164
10:12
I
12 °C 3,2 km 900 ft 340°   340° 19 24 kt METAR CYYZ 221412Z 34019G24KT 2SM -RA BR FEW006 OVC009 12/12 A3000 RMK SF2SC6 PRESRR SLP161
10:00
M
13 °C 6,4 km 1.400 ft 340°   340° 19 kt METAR CYYZ 221400Z CCA 34019KT 4SM -RA BR OVC014 13/13 A2998 RMK SC8 PRESRR SLP155
09:43
M
16 °C 10 km 1.400 ft 330°   330° 7 kt METAR CYYZ 221343Z 33007KT 6SM BR FEW005 OVC014 16/15 A2996 RMK SF1SC7 SLP147 DENSITY ALT 800FT
09:00
I
14 °C 6,4 km 600 ft Var   000° 0 kt METAR CYYZ 221300Z 00000KT 4SM BR BKN006 OVC010 14/14 A2994 RMK SC5SC3 SLP140 DENSITY ALT 600FT
08:28
M
14 °C 6,4 km 1.000 ft Var   Var 2 kt METAR CYYZ 221228Z VRB02KT 4SM BR SCT004 OVC010 14/14 A2994 RMK SC3SC5 SLP143 DENSITY ALT 600FT
08:00
M
14 °C 10 km 1.200 ft 150°   150° 4 kt METAR CYYZ 221200Z 15004KT 6SM BR OVC012 14/14 A2995 RMK SC8 SLP146 DENSITY ALT 600FT
07:10
M
16 °C 16 km 1.500 ft 130°   130° 3 kt METAR CYYZ 221110Z 13003KT 090V170 10SM OVC015 16/12 A2995 RMK SC8 SLP145 DENSITY ALT 800FT
07:00
M
16 °C 16 km 1.800 ft 100°   100° 5 kt METAR CYYZ 221100Z 10005KT 090V210 10SM -DZ OVC018 16/12 A2995 RMK ST8 SLP144 DENSITY ALT 800FT
06:00
M
16 °C 24 km 2.000 ft 030°   030° 2 kt METAR CYYZ 221000Z 03002KT 15SM OVC020 16/12 A2994 RMK SC8 SLP141 DENSITY ALT 800FT
05:00
M
16 °C 24 km 2.200 ft 150°   150° 3 kt METAR CYYZ 220900Z 15003KT 15SM OVC022 16/13 A2997 RMK SC8 SLP149 DENSITY ALT 800FT
04:00
M
16 °C 24 km 2.500 ft Var   000° 0 kt METAR CYYZ 220800Z 00000KT 15SM OVC025 16/11 A2997 RMK SC8 SLP150 DENSITY ALT 800FT
03:00
M
16 °C 24 km 2.400 ft 350°   350° 5 kt METAR CYYZ 220700Z 35005KT 15SM BKN024 16/14 A2998 RMK SC7 SLP152 DENSITY ALT 800FT
02:00
M
18 °C 24 km 2.300 ft 030°   030° 3 kt METAR CYYZ 220600Z 03003KT 15SM OVC023 18/12 A2998 RMK SC8 SLP153 DENSITY ALT 1000FT
01:00
M
17 °C 24 km 2.300 ft 340°   340° 2 kt METAR CYYZ 220500Z 34002KT 15SM OVC023 17/15 A3000 RMK SC8 SLP160 DENSITY ALT 900FT
00:00
V
16 °C 24 km 20.000 ft 090°   090° 5 kt METAR CYYZ 220400Z 09005KT 15SM FEW100 SCT120 OVC200 16/15 A3000 RMK AC2AC2CI4 SLP160 DENSITY ALT 800FT

21 maggio 2022

Tempo Codice Tempo metereologico Temp. Vista Nuvole Vento METAR/SPECI
23:00
V
19 °C 24 km 3.000 ft 060°   060° 3 kt METAR CYYZ 220300Z 06003KT 15SM BKN030 BKN060 19/12 A3004 RMK SC5SC2 INTMT -RA SLP172 DENSITY ALT 1100FT
22:00
V
19 °C 24 km 10.000 ft 350°   350° 5 kt METAR CYYZ 220200Z 35005KT 15SM -RA SCT032 OVC100 19/15 A3002 RMK SC4AC4 SLP166 DENSITY ALT 1100FT
21:35
V
19 °C 24 km 11.000 ft 050°   050° 4 kt METAR CYYZ 220135Z 05004KT 15SM -RA BKN110 OVC160 19/15 A3000 RMK AC5AC3 SLP160 DENSITY ALT 1100FT
21:00
V
19 °C 24 km 25.000 ft 020°   020° 6 kt METAR CYYZ 220100Z 02006KT 15SM SCT110 OVC250 19/15 A2999 RMK AC4CI4 SLP155 DENSITY ALT 1100FT
20:00
V
19 °C 24 km 25.000 ft 020°   020° 8 kt METAR CYYZ 220000Z 02008KT 15SM SCT110 OVC250 19/16 A2997 RMK AC4CI4 SLP149 DENSITY ALT 1200FT
19:00
V
21 °C 24 km 25.000 ft 350°   350° 11 kt METAR CYYZ 212300Z 35011KT 15SM FEW040 SCT120 BKN250 21/17 A2995 RMK SC1AC2CI3 CB TOP DIST SE SLP142 DENSITY ALT 1400FT
18:18
V
23 °C 24 km 25.000 ft 330°   330° 15 kt METAR CYYZ 212218Z 33015KT 280V340 15SM FEW040 SCT120 BKN250 23/16 A2994 RMK SC1AC2CI3 WSHFT 2159 CB TOP DIST SE PRESFR SLP139 DENSITY ALT 1700FT
18:00
V
24 °C 24 km 12.000 ft 280°   280° 16 kt METAR CYYZ 212200Z 28016KT 15SM FEW042 BKN120 BKN260 24/16 A2996 RMK CU2AC3CI1 SLP146 DENSITY ALT 1700FT
17:00
V
25 °C 24 km 4.000 ft 290°   290° 15 22 kt METAR CYYZ 212100Z 29015G22KT 15SM BKN040 BKN260 25/17 A2995 RMK CU5CC1 SLP142 DENSITY ALT 1800FT
16:00
V
26 °C 24 km 3.900 ft 280°   280° 21 29 kt METAR CYYZ 212000Z 28021G29KT 15SM BKN039 BKN240 26/18 A2995 RMK CU5CI1 SLP141 DENSITY ALT 2000FT
15:00
V
22 °C 24 km 26.000 ft 210°   210° 12 kt METAR CYYZ 211900Z 21012KT 15SM FEW040 SCT160 BKN260 22/19 A2990 RMK CU1AC3CI3 CU TR SLP125 DENSITY ALT 1600FT
14:00
V
21 °C 24 km 12.000 ft 240°   240° 4 15 kt METAR CYYZ 211800Z 24004G15KT 210V350 15SM FEW040CB BKN120 BKN240 21/17 A2984 RMK CB2AC4CI1 SLP104 DENSITY ALT 1600FT
13:29
V
18 °C 24 km 11.000 ft 350°   350° 20 25 kt METAR CYYZ 211729Z 35020G25KT 15SM -SHRA SCT050CB BKN110 18/18 A2984 RMK CB3AC4 CB NE-E MOVG E PRESFR SLP105 DENSITY ALT 1200FT
13:09
V
17 °C 16 km 11.000 ft 300°   300° 23 39 kt METAR CYYZ 211709Z 30023G39KT 10SM R24L/5500VP6000FT/U -TSRA SCT040CB BKN110 17/17 A2993 RMK CB4AC3 CB N-SE MOVG E FREQ LTGIC PRESFR SLP136 DENSITY ALT 1000FT
13:00
I
17 °C 2,0 km 1.500 ft 280°   280° 32 65 kt METAR CYYZ 211700Z 28032G65KT 1 1/4SM R24L/3500VP6000FT/D +TSRA OVC015CB 17/17 A2998 RMK RA4CB4 FREQ LTGIC PRESRR SLP152 DENSITY ALT 900FT
12:52
I
28 °C 3,2 km 4.100 ft 250°   250° 25 39 kt METAR CYYZ 211652Z 25025G39KT 2SM +TSRA BKN041CB OVC080 28/19 A2995 RMK CB6AC2 PRESRR SLP143 DENSITY ALT 2200FT
12:00
V
29 °C 24 km - 240°   240° 16 21 kt METAR CYYZ 211600Z 24016G21KT 15SM FEW055 FEW140 SCT240 29/19 A2986 RMK CU1AC1CI1 SLP110 DENSITY ALT 2500FT
11:00
V
28 °C 24 km - 230°   230° 17 25 kt METAR CYYZ 211500Z 23017G25KT 15SM FEW060 SCT240 28/20 A2985 RMK CU1CI3 SLP108 DENSITY ALT 2300FT
Dati più vecchi

Scarica la nostra applicazione

Facile accesso a tutte le previsioni dell'aviazione sul tuo cellulare e tablet.
Con molte caratteristiche non disponibili sul sito web, come il supporto offline e una lista personale di aeroporti.

Noi e le terze parti seguiamo il tuo comportamento in internet sul nostro sito web con i cookie. Se continui, riteniamo che tu sia d'accordo con la nostra politica sui cookie. Per saperne di più